Torna al catalogo

CZ-6A DEB

AttivoPO
NORAD 61309·DEBRIS·🇨🇳 China

Lanciato Aug 6, 2024 da Taiyuan Satellite Launch Center

Loading…

Prossimi Passaggi (prossime 24 ore)

TLE

AggiornatoSource: Space-Track

Epoca: Sep 14, 2026, 23:07 UTC

1 61309U 24140TW  26257.96330230  .00002042  00000-0  77549-3 0  9991
2 61309  88.9721 261.1497 0021613 195.6937 164.3592 14.30597540106745

Traccia CZ-6A DEB in tempo reale con AllMySat

Download on the App Store